User: anonymous   Login
Location: Mount Graham
(32.7016°N, 109.8912°W)
Time: 17:03:24
(UTC-07:00)
Language:

Cosmos 1340 - Orbit

View from above orbital plane
View from above orbital plane
View from above satellite
View from above satellite

Ground track
Ground track

The orbit data is extracted from the following two-line orbital elements,

1 13067U 82013A   16180.55212476  .00000620  00000-0  28833-4 0  9995
2 13067  81.1856 186.3799 0002024 287.1528 193.7434 15.18528005874131
Epoch (UTC): 28 June 2016 13:15:03
Eccentricity: 0.0002024
inclination: 81.1856°
perigee height: 509 km
apogee height: 511 km
right ascension of ascending node: 186.3799°
argument of perigee: 287.1528°
revolutions per day: 15.18528005
mean anomaly at epoch: 193.7434°
orbit number at epoch: 87413

The dashed part of the orbit path shows where the satellite is in the earth's shadow,  

DLR